Location: NJAA Observatory
(40.6819°N, 74.8979°W)
Time: 07:13:53
(UTC-04:00)

Transit 2A Rocket - Visible Passes

Search period start: 20 April 2014 00:00
Search period end: 30 April 2014 00:00
Orbit: 593 x 916 km, 66.7° (Epoch: 20 April)

Date Brightness Start Highest point End Pass type
(mag) Time Alt. Az. Time Alt. Az. Time Alt. Az.
20 Apr 7.5 00:43:16 10° NNW 00:43:45 13° NNW 00:43:45 13° NNW visible
21 Apr 7.2 00:01:54 10° NNW 00:03:09 17° N 00:03:09 17° N visible
21 Apr 6.9 23:20:46 10° N 23:22:35 18° NNE 23:22:35 18° NNE visible
22 Apr 6.9 22:40:00 10° N 22:42:01 14° NE 22:42:01 14° NE visible
23 Apr 7.3 00:21:14 10° NW 00:21:59 15° NW 00:21:59 15° NW visible
23 Apr 6.8 23:39:41 10° NNW 23:41:27 23° NNW 23:41:27 23° NNW visible
24 Apr 6.3 22:58:21 10° NNW 23:00:57 27° NNE 23:00:57 27° NNE visible
25 Apr 6.3 22:17:16 10° N 22:20:28 21° NE 22:20:28 21° NE visible
25 Apr 7.1 23:59:20 10° NW 00:00:26 17° NW 00:00:26 17° NW visible
26 Apr 6.8 21:36:40 10° NNE 21:38:44 13° NE 21:40:00 12° ENE visible
26 Apr 6.2 23:17:35 10° NNW 23:19:58 31° NW 23:19:58 31° NW visible
27 Apr 5.3 22:36:05 10° NNW 22:39:32 46° NNE 22:39:32 46° NNE visible
28 Apr 5.6 21:54:48 10° N 21:58:43 31° NE 21:59:08 30° ENE visible
28 Apr 6.9 23:37:39 10° NW 23:39:06 17° WNW 23:39:06 17° WNW visible
29 Apr 6.3 21:13:47 10° N 21:16:55 19° NE 21:18:46 15° ENE visible
29 Apr 5.7 22:55:37 10° NW 22:58:44 38° WNW 22:58:44 38° WNW visible
